FW0708 Weather Reports


Display with metric or nautical units.
time (UTC)temp
F
wind
direction
speed
MPH
gust
MPH
rain 1hr
in
rain 24hr
in
rain mn
in
humidity
%
barometer
mb
20260903051604 58 69 0.0 0.0 0.00 0.00 0.00 94 1012.1
20260903050056 58 69 0.0 0.0 0.00 0.00 0.00 94 1012.1
20260903044600 58 69 0.0 0.0 0.00 0.00 0.00 94 1012.2
20260903043052 59 69 0.0 0.0 0.00 0.00 0.00 93 1012.1
20260903041551 59 69 0.0 0.0 0.00 0.00 0.00 93 1011.9
20260903040052 59 69 0.0 0.0 0.00 0.00 0.00 92 1011.8
20260903034552 59 69 0.0 0.0 0.00 0.00 0.00 92 1012.0
20260903033050 60 69 0.0 0.0 0.00 0.00 0.00 91 1011.8
20260903031550 60 69 0.0 0.0 0.00 0.00 0.00 90 1011.9
20260903030049 60 69 0.0 0.0 0.00 0.00 0.00 89 1011.9
20260903024548 61 69 0.0 0.0 0.00 0.00 0.00 87 1011.7
20260903023048 62 69 0.0 0.0 0.00 0.00 0.00 86 1011.6
20260903021547 63 69 0.0 0.0 0.00 0.00 0.00 85 1011.5
20260903020051 64 69 0.0 0.0 0.00 0.00 0.00 83 1011.4
20260903014604 65 69 0.0 0.0 0.00 0.00 0.00 80 1011.3
20260903013046 66 69 0.0 0.0 0.00 0.00 0.00 78 1011.1
20260903011546 67 69 0.0 0.0 0.00 0.00 0.00 77 1011.0
20260903010045 69 69 0.0 0.0 0.00 0.00 0.00 74 1010.9
20260903004546 71 69 0.0 0.0 0.00 0.00 0.00 71 1010.8
20260903003043 72 69 0.0 0.0 0.00 0.00 0.00 69 1010.8
20260903001543 73 69 0.0 2.0 0.00 0.00 0.00 65 1010.8
20260903000043 74 69 0.0 4.0 0.00 0.00 0.00 64 1010.8
20260902234542 74 68 1.0 7.0 0.00 0.00 0.00 64 1010.8
20260902233042 74 81 1.0 9.0 0.00 0.00 0.00 63 1010.8
20260902231542 74 53 2.0 10.0 0.00 0.00 0.00 62 1010.7
20260902230043 75 85 4.0 9.0 0.00 0.00 0.00 62 1010.7
20260902224546 75 69 3.0 8.0 0.00 0.00 0.00 60 1010.6
20260902223041 75 57 3.0 9.0 0.00 0.00 0.00 60 1010.5
20260902221540 76 44 5.0 10.0 0.00 0.00 0.00 59 1010.5
20260902220042 76 85 4.0 9.0 0.00 0.00 0.00 59 1010.5
20260902214542 76 89 5.0 10.0 0.00 0.00 0.00 59 1010.5
20260902213039 76 58 6.0 11.0 0.00 0.00 0.00 59 1010.6
20260902211537 75 9 4.0 10.0 0.00 0.00 0.00 60 1010.6
20260902210051 76 61 6.0 11.0 0.00 0.00 0.00 59 1010.7
20260902204536 76 65 5.0 12.0 0.00 0.00 0.00 59 1010.7
20260902203035 77 74 4.0 10.0 0.00 0.00 0.00 60 1010.7
20260902201537 76 108 7.0 12.0 0.00 0.00 0.00 60 1010.7
20260902200036 76 22 5.0 11.0 0.00 0.00 0.00 60 1010.8
20260902194539 75 65 7.0 11.0 0.00 0.00 0.00 59 1010.9
20260902193036 75 33 7.0 12.0 0.00 0.00 0.00 60 1011.0
20260902191535 75 44 3.0 12.0 0.00 0.00 0.00 62 1011.1
20260902190032 75 45 7.0 10.0 0.00 0.00 0.00 63 1011.3
20260902184532 75 26 5.0 12.0 0.00 0.00 0.00 67 1011.2
20260902183031 74 37 4.0 12.0 0.00 0.00 0.00 65 1011.2
20260902181531 74 21 5.0 11.0 0.00 0.00 0.00 66 1011.2
20260902180030 75 25 4.0 12.0 0.00 0.00 0.00 67 1011.4
20260902174529 76 62 4.0 8.0 0.00 0.00 0.00 64 1011.4
20260902173034 75 60 5.0 10.0 0.00 0.00 0.00 63 1011.3
20260902171526 75 2 5.0 11.0 0.00 0.00 0.00 65 1011.3
20260902170024 76 42 3.0 10.0 0.00 0.00 0.00 63 1011.3
20260902164522 77 18 4.0 9.0 0.00 0.00 0.00 62 1011.4
20260902163019 77 39 3.0 6.0 0.00 0.00 0.00 62 1011.2
20260902161523 77 14 2.0 6.0 0.00 0.00 0.00 64 1011.2
20260902160012 78 304 3.0 6.0 0.00 0.00 0.00 63 1011.3
20260902154512 77 310 1.0 4.0 0.00 0.00 0.00 62 1011.3
20260902153004 76 358 1.0 4.0 0.00 0.00 0.00 65 1011.2
20260902151606 75 336 0.0 3.0 0.00 0.00 0.00 66 1011.3
20260902150056 74 341 1.0 5.0 0.00 0.00 0.00 66 1011.5
20260902144551 74 283 1.0 4.0 0.00 0.00 0.00 69 1011.8
20260902143050 73 255 0.0 5.0 0.00 0.00 0.00 70 1011.8
20260902141544 71 327 0.0 3.0 0.00 0.00 0.00 73 1011.9
20260902140044 69 212 0.0 3.0 0.00 0.00 0.00 76 1011.9
20260902134549 68 187 1.0 5.0 0.00 0.00 0.00 79 1011.9
20260902133031 66 207 1.0 5.0 0.00 0.00 0.00 83 1012.0
20260902131541 64 253 0.0 3.0 0.00 0.00 0.00 90 1012.0
20260902130024 62 341 0.0 2.0 0.00 0.00 0.00 92 1011.8
20260902124521 61 341 0.0 4.0 0.00 0.00 0.00 93 1011.7
20260902123018 59 197 0.0 0.0 0.00 0.00 0.00 92 1011.5
20260902121515 59 197 0.0 0.0 0.00 0.00 0.00 90 1011.2
20260902120014 60 197 0.0 0.0 0.00 0.00 0.00 90 1011.1
20260902114514 60 197 0.0 0.0 0.00 0.00 0.00 89 1011.1
20260902113008 61 197 0.0 0.0 0.00 0.00 0.00 88 1011.1
20260902111513 61 197 0.0 0.0 0.00 0.00 0.00 88 1011.2
20260902110008 62 197 0.0 0.0 0.00 0.00 0.00 87 1011.2
20260902104512 62 197 0.0 0.0 0.00 0.00 0.00 88 1011.3
20260902103005 62 197 0.0 1.0 0.00 0.00 0.00 88 1011.5
20260902101503 62 197 0.0 0.0 0.00 0.00 0.00 88 1011.7
20260902100002 62 253 0.0 0.0 0.00 0.00 0.00 89 1011.4
20260902094502 62 253 0.0 0.0 0.00 0.00 0.00 88 1011.2
20260902093001 62 253 0.0 0.0 0.00 0.00 0.00 87 1011.0
20260902091610 62 253 0.0 0.0 0.00 0.00 0.00 86 1011.1
20260902090001 62 253 0.0 0.0 0.00 0.00 0.00 86 1011.2
20260902084602 62 253 0.0 1.0 0.00 0.01 0.00 86 1011.2
20260902083059 63 253 0.0 1.0 0.00 0.01 0.00 87 1011.0
20260902081558 63 253 0.0 0.0 0.00 0.01 0.00 87 1010.7
20260902080112 63 253 0.0 0.0 0.00 0.01 0.00 86 1010.8
20260902074559 63 253 0.0 3.0 0.00 0.01 0.00 86 1011.1
20260902073106 63 260 0.0 1.0 0.00 0.01 0.00 88 1011.4
20260902071609 62 260 0.0 0.0 0.00 0.01 0.00 88 1010.9
20260902070054 62 260 0.0 0.0 0.00 0.01 0.00 88 1011.1
20260902064553 62 260 0.0 0.0 0.00 0.01 0.00 88 1010.8
20260902063051 62 260 0.0 0.0 0.00 0.01 0.00 89 1011.1
20260902061605 62 260 0.0 0.0 0.00 0.01 0.00 90 1011.3
20260902060049 62 260 0.0 0.0 0.00 0.01 0.00 90 1011.1
20260902054547 62 260 0.0 0.0 0.00 0.01 0.00 90 1011.2
20260902053048 61 260 0.0 0.0 0.00 0.01 0.00 89 1011.3